Liberia, Costa Rica

11:20 PM CST on December 17, 2017 (GMT -0600)
Daniel Oduber Quiros International

Weather History for MRLB - June, 2012

Change the Weather History Date:

Sunday, June 24, 2012

  Actual Average Record
Temperature  
Mean Temperature 80 °F -  
Max Temperature 89 °F 87 °F 95 °F (2015)
Min Temperature 70 °F 75 °F 70 °F (2012)
Cooling Degree Days 14    
Growing Degree Days 30 (Base 50)    
Moisture  
Dew Point 74 °F    
Average Humidity 74    
Maximum Humidity 94    
Minimum Humidity 54    
Precipitation  
Precipitation 0.00 in - - ()
Sea Level Pressure  
Sea Level Pressure 29.84 in    
Wind  
Wind Speed 3 mph ()    
Max Wind Speed 9 mph    
Max Gust Speed -    
Visibility 6.8 miles    
Events Fog , Thunderstorm    
Averages and records for this station are not official NWS values.
T = Trace of Precipitation, MM = Missing Value Source: Averaged Metar Reports

Daily Weather History Graph

Daily Weather History Graph

Search for Another Location

Airport or City:

Trip Planner

Search our weather history database for the weather conditions in past years. The results will help you decide how hot, cold, wet, or windy it might be!

Date:

Astronomy

Jun. 24, 2012 Rise Set
Actual Time 5:22 AM CST 6:07 PM CST
Civil Twilight 4:59 AM CST 6:30 PM CST
Nautical Twilight 4:32 AM CST 6:57 PM CST
Astronomical Twilight 4:04 AM CST 7:25 PM CST
Moon 9:34 AM CST (6/24) 10:04 PM CST (6/24)
Length of Visible Light 13h 30m
Length of Day
12h 44m
Waxing Crescent, 25% of the Moon is Illuminated
Jun 24
Waxing Crescent
Jun 26
First Quarter
Jul 3
Full
Jul 10
Last Quarter
Jul 18
New

Hourly Weather History & Observations

Time (CST) Temp. Heat Index Dew Point Humidity Pressure Visibility Wind Dir Wind Speed Gust Speed Precip Events Conditions
6:00 AM 71 °F - 69 °F 92% 29.83 in 0 mi Calm Calm - - Fog Heavy Fog
6:00 AM 71.6 °F - 69.8 °F 94% 29.87 in 0.2 mi Calm Calm - N/A Fog Fog
6:10 AM 71.6 °F - 69.8 °F 94% 29.88 in 6.2 mi ENE 3.5 mph - N/A   Mostly Cloudy
7:00 AM 75.2 °F - 71.6 °F 89% 29.89 in 6.2 mi Calm Calm - N/A   Mostly Cloudy
8:00 AM 80.6 °F 84.6 °F 71.6 °F 74% 29.90 in - NW 3.5 mph - N/A   Clear
9:00 AM 83 °F - 74 °F 69% 29.88 in 12 mi WSW 3.5 mph - -   Scattered Clouds
9:00 AM 82.4 °F 89.5 °F 75.2 °F 79% 29.88 in 6.2 mi WSW 3.5 mph - N/A   Scattered Clouds
10:00 AM 84.2 °F 90.9 °F 73.4 °F 70% 29.88 in 6.2 mi West 5.8 mph - N/A   Scattered Clouds
11:00 AM 86.0 °F 93.4 °F 73.4 °F 66% 29.88 in 6.2 mi WSW 4.6 mph - N/A   Scattered Clouds
12:00 PM 88 °F - 74 °F 54% 29.86 in 12 mi WSW 4.6 mph - -   Partly Cloudy
12:00 PM 87.8 °F 95.6 °F 73.4 °F 62% 29.87 in 6.2 mi WSW 4.6 mph - N/A   Mostly Cloudy
1:00 PM 87.8 °F 95.6 °F 73.4 °F 62% 29.85 in 6.2 mi West 5.8 mph - N/A   Mostly Cloudy
2:00 PM 87.8 °F 95.6 °F 73.4 °F 62% 29.81 in 6.2 mi West 6.9 mph - N/A   Scattered Clouds
3:00 PM 87 °F - 75 °F 60% 29.78 in 12 mi West 9.2 mph - -   Overcast
3:00 PM 87.8 °F 97.6 °F 75.2 °F 66% 29.79 in 6.2 mi West 9.2 mph - N/A   Mostly Cloudy
4:00 PM 84.2 °F 92.3 °F 75.2 °F 74% 29.79 in 6.2 mi WNW 8.1 mph - N/A   Mostly Cloudy
4:05 PM 84.2 °F 92.3 °F 75.2 °F 74% 29.79 in 6.2 mi WNW 8.1 mph - N/A Thunderstorm Light Thunderstorm
5:00 PM 82.4 °F 89.5 °F 75.2 °F 79% 29.81 in 6.2 mi WNW 3.5 mph - N/A   Mostly Cloudy
6:00 PM 82 °F - 74 °F 72% 29.78 in 12 mi WNW 3.5 mph - -   Overcast
6:00 PM 82.4 °F 89.5 °F 75.2 °F 79% 29.82 in - WNW 3.5 mph - N/A   Clear
7:00 PM 80.6 °F 86.2 °F 75.2 °F 84% 29.84 in - NNW 2.3 mph - N/A   Clear
8:00 PM 80.6 °F 86.2 °F 75.2 °F 84% 29.85 in - NW 2.3 mph - N/A   Clear